Weather in Veliky Hutor

Ukraine / Cherkassi District     49°51′42″N   32°06′19″E
temp.,
°C
wind,
m/s
gust,
m/s
humid.,
%
clouds,
%
prec.,
mm/h
press.,
hPa
HPBL,
m
12 april, mon
mon1200:00+8ne3459100 0.0 102651
03:00+7ne3565100 0.0 102676
06:00+6nne4769100 0.0 1024128
09:00+7nne3782100 0.6 1023230
12:00+9ne3575100 0.4 1022546
15:00+12ene2369100 0.4 1021735
18:00+11n2377100 0.0 1021122
21:00+9nnw228889 0.0 102114
13 april, tue
tue1300:00+9nw2288100 0.0 102130
03:00+9n1189100 0.0 102010
06:00+9sse1191100 0.0 102012
09:00+9sse2392100 0.1 1020109
12:00+10se3586100 0.0 1020346
15:00+12sse3475100 0.1 1020769
18:00+12sse3681100 0.1 1019387
21:00+10se2385100 0.1 101948
14 april, wed
wed1400:00+9sse358883 0.0 101891
03:00+8s349043 0.0 101863
06:00+7s339062 0.0 101764
09:00+11sse4576100 0.0 1017571
12:00+13s456279 0.0 1017993
15:00+15s344953 0.0 10151675
18:00+13s3564100 0.1 1015311
21:00+11ese1171100 0.1 101510
15 april, thu
thu1500:00+11e2374100 0.0 101463
03:00+10e358099 0.1 1014105
06:00+9ese378095 0.0 1013179
09:00+11se5867100 0.0 1013498
12:00+12se4662100 0.0 10131075
15:00+11sse457189 0.1 1012604
18:00+11se1270100 0.0 1012261
21:00+9ne2381100 0.1 101165
16 april, fri
fri1600:00+9ese3594100 1.8 1011354
03:00+8e3692100 1.8 1010414
06:00+8ese3695100 0.8 1009335
09:00+8ese5895100 1.4 1010415
12:00+9s5689100 0.3 1011581
15:00+8s4688100 0.6 1013614
18:00+7s4789100 0.3 1014527
21:00+6s4685100 0.5 1016608